• In Uzbekistan
  • List of Countries
  • For 7 days
  • Water Temperature
  • Satellite Maps
  • Weather Map
  • Weather Widgets
  • user-avatar
    Login

    Hourly Weather Abovyan

    Today, 14 November, Wednesday

    Time Temperature Precipitation Wind Pressure Humidity
    00:00 +7°C° 0.1 mm 1 mps 673 mmHg 71%
    01:00 +7°C° 0.1 mm 1 mps 672 mmHg 72%
    02:00 +7°C° 0.1 mm 1 mps 672 mmHg 73%
    03:00 +7°C° 0.1 mm 1 mps 672 mmHg 74%
    04:00 +7°C° 0.2 mm 1 mps 672 mmHg 75%
    05:00 +6°C° 0.2 mm 1 mps 672 mmHg 76%
    06:00 +6°C° 0.2 mm 1 mps 672 mmHg 77%
    07:00 +7°C° 0.2 mm 1 mps 672 mmHg 73%
    08:00 +6°C° 0.2 mm 2 mps 672 mmHg 70%
    09:00 +7°C° 0.2 mm 2 mps 672 mmHg 67%
    10:00 +8°C° 0.2 mm 2 mps 671 mmHg 65%
    11:00 +8°C° 0.2 mm 2 mps 671 mmHg 63%
    12:00 +9°C° 0.2 mm 3 mps 671 mmHg 60%
    13:00 +9°C° 0.1 mm 3 mps 670 mmHg 60%
    14:00 +9°C° 0.1 mm 3 mps 670 mmHg 61%
    15:00 +9°C° 0.1 mm 3 mps 670 mmHg 61%
    16:00 +8°C° 0.2 mm 3 mps 670 mmHg 64%
    17:00 +8°C° 0.2 mm 3 mps 670 mmHg 67%
    18:00 +7°C° 0.2 mm 3 mps 670 mmHg 70%
    19:00 +7°C° 0.3 mm 3 mps 670 mmHg 71%
    20:00 +5°C° 0.3 mm 3 mps 669 mmHg 71%
    21:00 +5°C° 0.3 mm 3 mps 669 mmHg 72%
    22:00 +5°C° 0.5 mm 3 mps 669 mmHg 73%
    23:00 +5°C° 0.5 mm 3 mps 669 mmHg 74%

    Tomorrow, 15 November, Thursday

    Time Temperature Precipitation Wind Pressure Humidity
    00:00 +5°C° 0.5 mm 3 mps 669 mmHg 75%
    01:00 +5°C° 0.7 mm 3 mps 669 mmHg 75%
    02:00 +5°C° 0.7 mm 3 mps 669 mmHg 76%
    03:00 +5°C° 0.7 mm 3 mps 668 mmHg 77%
    04:00 +5°C° 0.6 mm 3 mps 668 mmHg 77%
    05:00 +5°C° 0.6 mm 3 mps 668 mmHg 77%
    06:00 +5°C° 0.6 mm 3 mps 668 mmHg 77%
    07:00 +5°C° 0.8 mm 3 mps 669 mmHg 77%
    08:00 +5°C° 0.8 mm 3 mps 669 mmHg 76%
    09:00 +7°C° 0.8 mm 3 mps 669 mmHg 75%
    10:00 +7°C° 0.6 mm 2 mps 669 mmHg 75%
    11:00 +8°C° 0.6 mm 2 mps 669 mmHg 75%
    12:00 +8°C° 0.6 mm 2 mps 669 mmHg 75%
    13:00 +8°C° 0.5 mm 2 mps 669 mmHg 75%
    14:00 +9°C° 0.5 mm 1 mps 669 mmHg 75%
    15:00 +9°C° 0.5 mm 1 mps 669 mmHg 76%
    16:00 +9°C° 0.6 mm 1 mps 670 mmHg 77%
    17:00 +8°C° 0.6 mm 1 mps 670 mmHg 78%
    18:00 +7°C° 0.6 mm 2 mps 670 mmHg 79%
    19:00 +8°C° 0.6 mm 1 mps 670 mmHg 79%
    20:00 +7°C° 0.6 mm 1 mps 671 mmHg 79%
    21:00 +7°C° 0.6 mm 1 mps 671 mmHg 79%
    22:00 +7°C° 0.5 mm 1 mps 671 mmHg 79%
    23:00 +7°C° 0.5 mm 1 mps 671 mmHg 79%

    Day after tomorrow, 16 November, Friday

    Time Temperature Precipitation Wind Pressure Humidity
    00:00 +7°C° 0.5 mm 1 mps 671 mmHg 79%
    01:00 +7°C° 0.3 mm 1 mps 671 mmHg 79%
    02:00 +7°C° 0.3 mm 1 mps 671 mmHg 79%
    03:00 +7°C° 0.3 mm 1 mps 671 mmHg 79%
    04:00 +7°C° 0.4 mm 1 mps 671 mmHg 80%
    05:00 +7°C° 0.4 mm 1 mps 671 mmHg 80%
    06:00 +7°C° 0.4 mm 1 mps 671 mmHg 80%
    07:00 +7°C° 0.4 mm 1 mps 671 mmHg 80%
    08:00 +8°C° 0.4 mm 1 mps 672 mmHg 79%
    09:00 +8°C° 0.4 mm 1 mps 672 mmHg 79%
    10:00 +9°C° 0.3 mm 1 mps 672 mmHg 78%
    11:00 +10°C° 0.3 mm 1 mps 672 mmHg 77%
    12:00 +10°C° 0.3 mm 1 mps 671 mmHg 76%
    13:00 +9°C° 0.2 mm 2 mps 671 mmHg 75%
    14:00 +10°C° 0.2 mm 2 mps 671 mmHg 74%
    15:00 +10°C° 0.2 mm 2 mps 671 mmHg 73%
    16:00 +9°C° 0.1 mm 2 mps 671 mmHg 74%
    17:00 +8°C° 0.1 mm 2 mps 671 mmHg 75%
    18:00 +9°C° 0.1 mm 1 mps 671 mmHg 75%
    19:00 +9°C° 0 mm 1 mps 671 mmHg 75%
    20:00 +7°C° 0 mm 2 mps 671 mmHg 75%
    21:00 +7°C° 0 mm 2 mps 671 mmHg 75%
    22:00 +7°C° 0.2 mm 2 mps 671 mmHg 75%
    23:00 +7°C° 0.2 mm 2 mps 671 mmHg 75%

    17 November, Saturday

    Time Temperature Precipitation Wind Pressure Humidity
    00:00 +8°C° 0.2 mm 2 mps 671 mmHg 75%
    01:00 +8°C° 0.3 mm 2 mps 671 mmHg 76%
    02:00 +8°C° 0.3 mm 2 mps 671 mmHg 77%
    03:00 +8°C° 0.3 mm 2 mps 671 mmHg 78%
    04:00 +8°C° 0.4 mm 2 mps 671 mmHg 78%
    05:00 +8°C° 0.4 mm 2 mps 671 mmHg 79%
    06:00 +8°C° 0.4 mm 2 mps 671 mmHg 80%
    07:00 +8°C° 0.7 mm 2 mps 671 mmHg 79%
    08:00 +9°C° 0.7 mm 2 mps 671 mmHg 79%
    09:00 +9°C° 0.7 mm 2 mps 671 mmHg 78%
    10:00 +10°C° 0.2 mm 2 mps 671 mmHg 76%
    11:00 +10°C° 0.2 mm 3 mps 671 mmHg 74%
    12:00 +11°C° 0.2 mm 3 mps 671 mmHg 71%
    13:00 +11°C° 0.1 mm 3 mps 671 mmHg 70%
    14:00 +11°C° 0.1 mm 3 mps 671 mmHg 68%
    15:00 +11°C° 0.1 mm 3 mps 670 mmHg 66%
    16:00 +10°C° 0.1 mm 3 mps 671 mmHg 68%
    17:00 +9°C° 0.1 mm 3 mps 671 mmHg 70%
    18:00 +8°C° 0.1 mm 2 mps 671 mmHg 72%
    19:00 +8°C° 0.1 mm 2 mps 671 mmHg 72%
    20:00 +8°C° 0.1 mm 2 mps 672 mmHg 72%
    21:00 +7°C° 0.1 mm 2 mps 672 mmHg 72%
    22:00 +6°C° 0 mm 2 mps 672 mmHg 73%
    23:00 +6°C° 0 mm 2 mps 672 mmHg 73%

    18 November, Sunday

    Time Temperature Precipitation Wind Pressure Humidity
    00:00 +5°C° 0 mm 2 mps 672 mmHg 73%
    01:00 +5°C° 0 mm 2 mps 672 mmHg 72%
    02:00 +5°C° 0 mm 2 mps 672 mmHg 71%
    03:00 +5°C° 0 mm 1 mps 672 mmHg 70%
    04:00 +5°C° 0 mm 1 mps 672 mmHg 70%
    05:00 +5°C° 0 mm 1 mps 672 mmHg 69%
    06:00 +5°C° 0 mm 1 mps 672 mmHg 69%
    07:00 +5°C° 0 mm 1 mps 672 mmHg 68%
    08:00 +5°C° 0 mm 1 mps 672 mmHg 67%
    09:00 +6°C° 0 mm 1 mps 672 mmHg 66%
    10:00 +6°C° 0 mm 1 mps 671 mmHg 63%
    11:00 +7°C° 0 mm 1 mps 671 mmHg 60%
    12:00 +6°C° 0 mm 2 mps 671 mmHg 57%
    13:00 +6°C° 0 mm 2 mps 671 mmHg 56%
    14:00 +6°C° 0 mm 2 mps 671 mmHg 55%
    15:00 +6°C° 0 mm 2 mps 670 mmHg 53%
    16:00 +6°C° 0.1 mm 2 mps 671 mmHg 56%
    17:00 +6°C° 0.1 mm 1 mps 671 mmHg 59%
    18:00 +5°C° 0.1 mm 1 mps 671 mmHg 61%
    19:00 +4°C° 0 mm 1 mps 671 mmHg 63%
    20:00 +3°C° 0 mm 1 mps 672 mmHg 64%
    21:00 +3°C° 0 mm 1 mps 672 mmHg 65%
    22:00 +3°C° 0 mm 1 mps 672 mmHg 65%
    23:00 +2°C° 0 mm 1 mps 672 mmHg 66%

    19 November, Monday

    Time Temperature Precipitation Wind Pressure Humidity
    00:00 +2°C° 0 mm 1 mps 672 mmHg 66%
    01:00 +2°C° 0 mm 1 mps 672 mmHg 66%
    02:00 +1°C° 0 mm 1 mps 672 mmHg 66%
    03:00 +1°C° 0 mm 1 mps 671 mmHg 66%
    04:00 +1°C° 0 mm 1 mps 672 mmHg 65%
    05:00 +1°C° 0 mm 1 mps 672 mmHg 65%
    06:00 0°C° 0 mm 1 mps 672 mmHg 64%
    07:00 +2°C° 0 mm 1 mps 672 mmHg 61%
    08:00 +3°C° 0 mm 1 mps 672 mmHg 58%
    09:00 +3°C° 0 mm 2 mps 673 mmHg 54%
    10:00 +4°C° 0 mm 2 mps 673 mmHg 51%
    11:00 +5°C° 0 mm 2 mps 672 mmHg 49%
    12:00 +6°C° 0 mm 2 mps 672 mmHg 46%
    13:00 +6°C° 0 mm 2 mps 672 mmHg 46%
    14:00 +6°C° 0 mm 2 mps 672 mmHg 45%
    15:00 +6°C° 0 mm 2 mps 671 mmHg 45%
    16:00 +5°C° 0 mm 2 mps 672 mmHg 47%
    17:00 +3°C° 0 mm 2 mps 672 mmHg 49%
    18:00 +2°C° 0 mm 2 mps 672 mmHg 51%
    19:00 +2°C° 0 mm 2 mps 672 mmHg 51%
    20:00 +2°C° 0 mm 2 mps 672 mmHg 51%
    21:00 +3°C° 0 mm 1 mps 672 mmHg 51%
    22:00 +3°C° 0 mm 1 mps 672 mmHg 52%
    23:00 +3°C° 0 mm 1 mps 672 mmHg 53%
    Show more